Probability
0 0 0 0 1 2 3 2 1 0 0 0 0 0 0 0 0 0 0 0 0 0 0 0 0 0 0 0 1 2 2 1 0 0 0 0 0 0 0 0 0 0 0
0 0 0 0 1 2 3 2 1 0 0 0 0 0 0 0 0 0 0 0 0 0 0 0 0 0 0 0 0 1 1 1 0 0 0 0 0 0 0 0 0 0 0
0 0 0 0 1 2 3 2 1 0 0 0 0 0 0 0 0 0 0 0 0 0 0 0 0 0 0 0 0 0 0 0 0 0 0 0 0 0 0 0 0 0 0
0 0 0 0 1 3 4 3 1 0 0 0 0 0 0 0 0 0 0 0 0 0 0 0 0 0 0 0 0 0 0 0 0 0 0 0 0 0 0 0 0 0 0
0 0 0 0 1 4 4 2 1 0 0 0 0 0 0 0 0 0 0 0 0 0 0 0 0 0 0 0 0 0 0 0 0 0 0 0 0 0 0 0 0 0 0
0 0 0 0 1 4 4 1 0 0 0 0 0 0 0 0 0 0 0 0 0 0 0 0 0 0 0 0 0 0 0 0 0 0 0 0 0 0 0 0 0 0 0
0 0 0 0 1 3 2 1 0 0 0 0 0 0 0 0 0 0 0 0 0 0 0 0 0 0 0 0 0 0 0 0 0 0 0 0 0 0 0 0 0 0 0
0 0 0 0 1 2 1 0 0 0 0 0 0 0 0 0 0 0 0 0 0 0 0 0 0 0 0 0 0 0 0 0 0 0 0 0 0 0 1 0 0 0 0
0 0 0 0 1 1 1 0 0 0 0 0 0 0 0 0 0 0 0 0 0 0 0 0 0 0 0 0 0 0 0 0 0 0 0 0 0 0 0 0 0 0 0
0 0 0 0 0 0 0 0 0 0 0 0 0 0 0 0 0 0 0 0 0 0 0 0 0 0 0 0 0 0 0 0 0 0 0 0 0 0 0 0 0 0 0
0 0 0 0 0 0 0 0 0 0 0 0 0 0 0 0 0 0 0 0 0 0 0 0 0 0 0 0 0 0 0 0 0 0 0 0 0 0 0 0 0 0 0
0 0 0 0 0 0 0 0 0 0 0 0 0 0 0 0 0 0 0 0 0 0 0 0 0 0 0 0 0 0 0 0 0 0 0 0 0 0 0 0 0 0 0
0 0 0 0 0 0 0 0 0 0 0 0 0 0 0 0 0 0 0 0 0 0 0 0 0 0 0 0 0 0 0 0 0 0 0 0 0 0 0 0 0 0 0
0 0 0 0 0 0 0 0 0 0 0 0 0 0 0 0 0 0 0 0 0 0 0 0 0 0 0 0 0 0 0 0 0 0 0 0 0 0 0 0 0 0 0
0 0 0 0 0 0 0 0 0 0 0 0 0 0 0 0 0 0 0 0 0 0 0 0 0 0 0 0 0 0 0 0 0 0 0 0 0 0 0 0 0 0 0
0 0 0 0 0 0 0 0 0 0 0 0 0 0 0 0 0 0 0 0 0 0 0 0 0 0 0 0 0 0 0 0 0 0 0 0 0 0 0 0 0 0 0
0 0 0 0 0 0 0 0 0 0 0 0 0 0 0 0 0 0 0 0 0 0 0 0 0 0 0 0 0 0 0 0 0 0 0 0 0 0 0 0 0 0 0
0 0 0 0 0 0 0 0 0 0 0 0 0 0 0 0 0 0 0 0 0 0 0 0 0 0 0 0 0 0 0 0 0 0 0 0 0 0 0 0 0 0 0
0 0 0 0 0 0 0 0 0 0 0 0 0 0 0 0 0 0 0 0 0 0 0 0 0 0 0 0 0 0 0 0 0 0 0 0 0 0 0 0 0 0 0
0 0 0 0 0 0 0 0 0 0 0 0 0 0 0 0 0 0 0 0 0 0 0 0 0 0 0 0 0 0 0 0 0 0 0 0 0 0 0 0 0 0 0
0 0 0 0 0 0 0 0 0 0 0 0 0 0 0 0 0 0 0 0 0 0 0 0 0 0 0 0 0 0 0 0 0 0 0 0 0 0 0 0 0 0 0
0 0 0 0 0 0 0 0 0 0 0 0 0 0 0 0 0 0 0 0 0 0 0 0 0 0 0 0 0 0 0 0 0 0 0 0 0 0 0 0 0 0 0
0 0 0 0 0 0 0 0 0 0 0 0 0 0 0 0 0 0 0 0 0 0 0 0 0 0 0 0 0 0 0 0 0 0 0 0 0 0 0 0 0 0 0
0 0 0 0 0 0 0 0 0 0 0 0 0 0 0 0 0 0 0 0 0 0 0 0 0 0 0 0 0 0 0 0 0 0 0 0 0 0 0 0 0 0 0
0 0 0 0 0 0 0 0 0 0 0 0 0 0 0 0 0 0 0 0 0 0 0 0 0 0 0 0 0 0 0 0 0 0 0 0 0 0 0 0 0 0 0
0 0 0 0 0 0 0 0 0 0 0 0 0 0 0 0 0 0 0 0 0 0 0 0 0 0 0 0 0 0 0 0 0 0 0 0 0 0 0 0 0 0 0
Wind_Speed
2 2 1 1 1 1 1 1 2 2 2 3 3 3 3 2 2 2 2 4 5 5 3 3 3 2 2 2 2 2 2 1 1 2 3 3 3 3 4 4 4 5 5
3 2 2 1 1 1 1 2 2 2 2 2 3 2 2 2 2 2 2 3 5 6 5 4 4 4 4 3 3 3 3 3 2 3 3 3 3 4 4 4 5 5 6
3 3 2 1 0 1 2 2 2 2 2 2 2 2 2 2 2 2 2 2 2 5 6 5 5 5 6 5 5 4 3 3 3 3 4 4 4 4 4 4 5 5 6
3 3 2 1 1 1 2 2 2 2 2 2 1 1 1 2 2 2 2 2 2 2 4 6 6 6 6 6 6 6 5 4 4 4 5 5 5 5 5 5 6 6 6
3 3 2 1 1 1 2 2 2 2 2 2 1 1 1 2 1 2 2 2 2 2 2 4 5 6 6 6 7 6 6 6 5 5 6 6 6 6 7 7 7 7 7
3 3 2 2 2 2 2 2 3 2 2 1 2 2 1 1 1 2 1 1 2 2 2 2 2 3 5 6 6 7 6 6 6 6 6 7 7 7 7 7 8 8 8
3 3 2 2 2 2 2 2 3 3 2 1 2 1 1 1 1 1 1 1 2 1 2 2 2 1 2 5 6 6 6 6 6 6 6 7 7 8 8 8 7 7 8
3 3 3 2 2 2 3 2 3 2 1 1 2 2 1 1 1 1 1 1 1 1 2 2 1 1 1 1 4 6 6 6 7 7 7 7 7 8 9 9 9 8 8
3 3 3 3 2 2 2 2 2 4 2 1 1 2 2 2 1 1 0 0 1 1 1 1 1 1 1 1 1 4 6 6 7 7 8 7 8 8 8 9 9 9 8
3 3 3 3 3 2 2 2 2 2 4 3 1 1 1 2 2 1 1 1 1 1 1 1 1 1 1 1 2 4 5 6 6 7 8 8 9 9 9 9 9 9 8
2 2 3 3 2 2 2 2 2 2 2 3 3 2 1 1 1 1 1 2 2 2 2 2 1 1 1 1 1 3 5 5 6 7 8 8 9 9 9 9 10 9 9
1 2 2 2 2 2 2 2 2 2 2 3 2 2 2 2 2 2 2 1 2 2 2 2 2 1 1 1 2 4 5 6 7 8 8 8 9 9 10 10 10 9 10
1 2 2 2 2 2 2 2 2 2 2 2 3 2 2 2 2 2 2 1 1 2 2 2 2 1 1 1 2 4 5 6 7 7 8 8 8 9 9 10 10 9 10
2 2 2 2 2 2 2 2 1 1 1 2 2 2 2 2 2 2 2 2 1 2 2 3 1 2 1 1 3 4 3 6 7 7 8 8 8 9 9 9 9 9 10
1 2 2 2 2 2 2 2 2 1 1 1 2 2 2 2 2 2 2 2 2 2 3 3 2 1 1 1 3 2 3 6 7 7 8 8 9 9 9 9 9 9 9
1 2 2 2 2 2 2 2 2 1 2 1 1 2 2 1 1 2 2 2 2 3 3 2 2 2 3 3 4 3 3 7 7 7 8 8 9 9 9 9 9 9 9
2 2 2 2 2 2 2 2 2 2 2 2 2 2 2 2 2 2 2 2 2 2 3 3 2 2 2 3 3 3 3 3 4 7 8 8 8 8 9 8 8 9 9
2 2 2 2 2 2 2 3 3 3 3 3 3 3 3 2 2 2 2 3 3 3 3 4 3 2 3 3 3 3 3 3 3 7 8 9 8 8 8 8 8 9 9
2 2 2 3 3 3 3 3 3 3 3 4 3 4 3 3 3 3 3 3 3 2 2 3 3 2 2 2 2 3 3 3 3 5 7 8 8 8 9 9 9 8 8
3 3 3 3 3 3 3 3 3 3 3 4 4 4 4 4 5 4 4 4 3 3 2 3 3 3 2 2 1 2 3 3 3 3 5 5 7 8 9 9 8 8 8
3 3 3 3 3 3 3 4 3 4 4 4 4 4 4 5 7 6 4 4 4 3 3 3 3 3 3 2 2 2 4 4 4 2 2 3 3 3 4 7 7 8 8
3 3 3 4 4 4 6 7 5 4 4 4 4 4 4 5 6 8 8 7 7 5 5 4 4 4 4 3 3 2 3 3 4 1 2 4 2 4 3 3 7 8 8
3 3 3 3 4 5 7 7 7 4 4 5 5 4 4 4 5 4 6 7 7 9 8 6 6 6 5 4 3 3 3 4 5 3 2 5 3 4 3 4 9 9 9
3 3 4 4 4 5 7 7 7 5 4 5 5 5 5 5 5 5 4 5 5 6 7 5 6 6 5 4 5 5 5 4 4 3 2 4 3 4 4 3 7 8 8
3 4 4 4 5 6 7 7 6 3 4 5 5 5 6 5 8 8 5 5 6 5 6 8 9 8 9 9 5 2 2 3 4 3 2 3 3 3 3 3 4 6 7
4 4 4 4 5 6 8 8 7 3 4 4 4 5 8 8 9 9 6 5 7 6 4 4 5 6 6 6 8 5 4 3 3 4 2 2 2 2 4 3 2 2 3
Wind_Direction
130 122 118 104 80 109 124 114 106 102 95 92 89 92 85 75 63 47 25 34 34 34 45 57 64 55 37 37 47 40 30 13 7 342 335 335 331 330 332 334 330 328 328
136 127 121 114 87 114 129 125 120 116 110 106 90 87 89 84 70 56 36 24 29 31 35 45 52 49 35 35 33 28 19 13 359 347 337 327 327 329 328 328 328 328 326
139 133 130 122 117 122 125 112 103 103 103 97 87 83 90 86 77 65 51 34 18 25 33 38 42 42 38 32 29 25 23 16 11 9 358 345 333 327 324 321 320 322 322
131 128 131 137 135 121 124 124 114 103 95 98 97 82 78 81 70 67 63 49 36 27 30 38 35 36 32 24 21 24 25 23 18 12 4 349 336 330 323 318 317 318 316
134 129 137 142 123 114 110 128 112 118 112 97 94 80 72 77 69 71 68 59 50 39 27 25 33 30 27 20 15 17 24 28 21 11 0 352 342 334 328 319 315 316 317
132 124 124 121 115 107 99 113 117 103 116 124 101 70 51 68 75 70 67 54 50 43 31 26 25 15 22 19 14 9 12 19 14 8 2 357 350 342 334 328 323 321 319
130 123 120 114 113 116 118 125 122 113 91 100 90 63 28 43 72 69 56 55 42 30 31 28 26 20 4 11 12 10 9 6 1 358 355 352 350 348 342 337 330 329 329
138 133 130 127 126 120 106 102 118 123 101 90 112 114 33 337 344 29 40 66 28 16 12 8 17 23 10 5 0 11 8 0 351 347 348 347 344 342 344 343 335 328 327
151 143 140 133 129 131 136 125 142 142 148 124 103 137 149 214 282 310 314 333 346 349 326 329 350 355 354 350 332 353 1 355 344 340 339 337 335 333 333 335 339 336 330
143 150 146 144 140 142 147 152 140 159 157 164 150 72 123 148 159 276 299 298 330 309 292 298 303 311 314 318 329 349 354 347 337 335 333 331 328 329 330 331 332 334 332
131 146 146 147 144 150 151 151 151 157 173 169 164 153 111 80 109 155 260 300 313 276 268 266 263 276 283 289 287 325 344 336 329 328 327 329 329 329 328 329 329 332 332
131 135 137 139 140 142 152 164 164 163 174 166 160 158 158 156 162 159 207 264 281 279 278 269 255 253 266 272 292 326 330 328 324 322 321 326 329 329 328 325 326 327 328
182 178 144 148 151 152 151 145 153 168 178 166 173 178 173 178 162 161 168 221 270 291 296 276 251 250 273 284 287 312 310 317 319 318 316 322 328 329 327 323 321 322 324
195 178 165 167 162 153 148 146 152 178 177 175 175 172 171 184 173 171 166 163 260 290 286 279 287 257 276 285 301 309 295 307 311 314 316 320 324 324 322 320 320 321 320
171 160 162 162 161 159 157 155 162 186 179 185 188 186 187 196 189 190 177 172 175 234 266 263 270 282 285 274 300 294 284 298 304 309 313 316 316 316 316 315 315 316 316
166 161 160 157 159 163 165 160 164 179 177 197 193 189 206 206 200 201 195 195 192 195 240 250 251 286 298 298 298 293 284 300 302 305 308 312 310 309 310 312 312 313 314
174 179 179 172 171 176 175 172 189 191 198 212 210 206 221 211 206 209 200 198 205 194 238 268 257 274 277 284 296 287 278 278 285 299 302 307 308 308 310 309 308 309 310
184 187 181 185 190 191 185 187 202 203 207 217 221 216 230 218 220 214 206 210 212 206 216 258 271 266 264 269 279 281 286 284 276 293 299 302 303 305 307 306 307 307 307
184 185 187 199 207 207 202 204 205 211 217 221 220 221 226 211 227 224 216 215 216 219 215 241 270 271 273 273 284 287 283 281 281 289 297 301 301 303 303 303 303 305 308
192 199 208 211 213 216 216 215 210 215 227 231 226 225 226 217 222 223 220 216 212 215 219 238 260 268 265 269 265 281 297 290 286 291 296 300 301 303 303 302 302 303 303
210 204 206 214 215 217 221 217 217 220 226 239 242 236 233 233 233 228 222 212 202 209 215 229 249 261 262 263 262 261 284 298 287 275 296 293 294 290 292 293 293 294 298
217 208 212 216 222 231 236 233 225 220 224 231 242 246 245 246 249 248 248 240 220 210 215 221 239 243 257 250 254 263 281 302 294 274 293 287 267 272 272 264 281 287 292
220 224 228 224 234 241 244 244 238 227 225 229 232 236 248 246 249 240 251 256 250 244 233 223 231 239 245 238 238 258 254 260 265 274 289 282 276 274 272 277 287 286 288
228 234 237 236 243 254 255 253 247 233 231 232 229 227 234 245 239 233 230 241 246 245 240 230 230 238 239 232 224 241 252 267 273 260 225 268 278 272 284 283 290 288 291
235 239 240 239 244 258 258 256 248 226 234 241 236 230 231 237 248 248 234 238 253 258 258 248 245 250 254 256 249 243 245 266 279 267 213 241 271 285 284 274 279 287 293
239 244 249 242 240 252 258 254 245 223 237 247 245 239 241 243 249 247 232 229 248 254 245 253 254 257 254 250 243 225 219 242 267 272 226 226 261 297 298 276 266 278 284